This demonstration page uses our WeatherBlox Daily Observations layout. Learn more.

Left ArrowRight Arrow

Hourly Observations for May 13, 2021

Temp ( °F °C ) Dew Point ( °F °C ) Humidity (%) Winds ( mph kmh ) Pressure ( in mb ) Visibility ( mi km ) Precip ( " mm )
12:54 am 00:54 Clear 50 10 34 1.1 54 54 SSW 3 6 30.38 1029 10 16.0934 N/A
1:54 am 01:54 Clear 49 9.4 34 1.1 56 56 S 3 6 30.39 1029 10 16.0934 N/A
2:54 am 02:54 Partly Cloudy 45 7.2 33 0.6 63 63 SSW 5 7 30.39 1029 10 16.0934 N/A
3:54 am 03:54 Mostly Clear 46 7.8 34 1.1 63 63 SSE 3 6 30.39 1029 10 16.0934 N/A
4:54 am 04:54 Mostly Cloudy 45 7.2 34 1.1 66 66 N N/A 30.39 1029 10 16.0934 N/A
5:54 am 05:54 Cloudy 44 6.7 34 1.1 68 68 N N/A 30.39 1029 10 16.0934 N/A
6:54 am 06:54 Sunny 43 6.1 34 1.1 71 71 S 5 7 30.4 1029 10 16.0934 N/A
7:54 am 07:54 Sunny 49 9.4 38 3.3 66 66 N N/A 30.4 1029 10 16.0934 N/A
8:54 am 08:54 Sunny 56 13.3 36 2.2 47 47 S 8 13 30.38 1029 10 16.0934 N/A
9:54 am 09:54 Sunny 61 16.1 34 1.1 36 36 S 14 22 30.37 1028 10 16.0934 N/A
10:54 am 10:54 Sunny 64 17.8 34 1.1 33 33 S 16 26 30.35 1028 10 16.0934 N/A
11:54 am 11:54 Sunny 66 18.9 35 1.7 32 32 S 10 17 30.34 1028 10 16.0934 N/A
12:54 pm 12:54 Sunny 68 20 34 1.1 28 28 S 12 19 30.31 1027 10 16.0934 N/A
1:54 pm 13:54 Sunny 68 20 33 0.6 27 27 SSE 12 19 30.29 1026 10 16.0934 N/A
2:54 pm 14:54 Sunny 70 21.1 35 1.7 28 28 S 9 15 30.27 1025 10 16.0934 N/A
3:54 pm 15:54 Sunny 70 21.1 34 1.1 27 27 S 12 19 30.24 1024 10 16.0934 N/A
4:54 pm 16:54 Partly Cloudy 71 21.7 35 1.7 27 27 SSE 14 22 30.21 1023 10 16.0934 N/A
5:54 pm 17:54 Sunny 70 21.1 34 1.1 27 27 SSE 13 20 30.18 1022 10 16.0934 N/A
6:54 pm 18:54 Sunny 69 20.6 34 1.1 27 27 SSE 15 24 30.17 1022 10 16.0934 N/A
7:54 pm 19:54 Sunny 66 18.9 34 1.1 30 30 SSE 14 22 30.16 1021 10 16.0934 N/A
8:54 pm 20:54 Clear 62 16.7 34 1.1 35 35 SSE 12 19 30.17 1022 10 16.0934 N/A
9:54 pm 21:54 Clear 62 16.7 34 1.1 35 35 SSE 12 19 30.19 1022 10 16.0934 N/A
10:54 pm 22:54 Clear 60 15.6 36 2.2 41 41 S 8 13 30.21 1023 10 16.0934 N/A
11:54 pm 23:54 Clear 59 15 37 2.8 44 44 SSE 9 15 30.2 1023 10 16.0934 N/A

Powered by AerisWeather